Location: *
(43.7000°S, 168.7000°W)
Time: 14:54:06
(UTC+00:00)

Cosmos 2026 Rocket - Pass Details

Date: 07 July 2020
Orbit: 938 x 1002 km, 82.9° (Epoch: 03 August)

Event Time Altitude Azimuth Distance (km) Brightness Sun altitude
Rises 17:48:09 0° 337° (NNW) 3,596 7.0 -10.5°
Reaches altitude 10° 17:50:42 10° 331° (NNW) 2,664 6.2 -10.1°
Maximum altitude 17:56:35 49° 257° (WSW) 1,219 4.2 -9.1°
Drops below altitude 10° 18:02:36 10° 182° (S) 2,727 6.1 -8.1°
Sets 18:05:15 0° 176° (S) 3,690 6.8 -7.6°
